DECAYED
Showing default

FLOCK 4Y 27, 55083 (Decayed)

Orbit data source: Space-Track

FLOCK 4Y 27, 55083 was a payload satellite owned by Planet (US) in LEO that was launched on Tue, 03 Jan 2023 UTC via an FALCON 9 launch vehicle from the Air Force Eastern Test Range (AFETR). Payload-class satellites include a variety of spacecraft equipped with specific instruments for various scientific and technological missions. These include communications satellites like Starlink; space stations such as the ISS; scientific satellites like the Hubble; Earth observation satellites from companies like Planet Labs, Umbra, and HawkEye 360; GPS; miniature CubeSats for education and research; and military/defense satellites.

Not visible in the next 10 days
Identifier
55083, 2023-001CC
Orbit
Decayed
Country
Flag of USUS
Related business
Manufacturer
Planet
Mission
Decayed Commercial Imaging
Bus & Motor
CUBESAT 3U, Unknown motor
Mass
5.7 kg wet, 5.7 kg dry
Launch date (UTC)
2023-01-03 (3 years ago)
Launch vehicle
FALCON 9
Launch site
Air Force Eastern Test Range (AFETR)
Object type
Payload
Rocket body
Debris
Shape & HBR
Box + 2 Pan, 1.0 m
Radar Cross Section
0.108 m², Medium (>0.1 m² and < 1m²)

Expand to show TLE details & history
Last TLE update: 4 months ago

TLE from 4 months ago
0 FLOCK 4Y 27
1 55083U 23001CC  25160.44263844  .15422812  25370-5  45944-3 0  9992
2 55083  97.3471 237.4182 0015532 267.8432  92.1091 16.43682367136085
Epoch: 2025-06-09T10:37Z
TLE epoch observation values (Epoch: 2025-06-09T10:37:23.961Z)
Latitude
-0°
Longitude
-179.98542°
Altitude
159.672 km
Speed
7.81 km/s
True Right ascension
15h 49m 40s
True Declination
0° 00' 00"
Sunlit
Object was in full shadow at epoch
Visualization orbit readout
Latitude
Unknown
Longitude
Unknown
Altitude
Unknown
Speed
Unknown
Apparent Right ascension
Unknown
Apparent Declination
Unknown
Sunlit
N/A
Visualization observer readout
Local Sidereal Time
06:25:20
Azimuth
Unknown
Elevation
Unknown
Doppler factor
Unknown
Orbital elements
Apogee altitude
162.969 km
Perigee altitude
142.682 km
Semi-major axis
6,530.963 km
Eccentricity
0.00155
Inclination
97.3471°
RAAN
237.4182°
Arg. of periapsis
267.8432°
True anomaly
92.28695°
Mean anomaly
92.1091°
Eccentric anomaly
92.19803°
Mean motion
4.11223 °/min
Orbital period
87.54 mins
BSTAR
0.00045944
Loading maneuver chart data...
Computing Atmospheric mass density...

Documentation

Showing up to 5 results
|